Weather History for Tulsa Jones, OK

Change the Weather History Date:

Thursday, October 4, 2012

  Actual Average (KTUL) Record (KTUL)
Temperature  
Mean Temperature 68 °F 66 °F  
Max Temperature 80 °F 77 °F 97 °F (1931)
Min Temperature 55 °F 54 °F 38 °F (2010)
Degree Days  
Heating Degree Days 0 3  
Month to date heating degree days 12  
Since 1 July heating degree days 36  
Cooling Degree Days 2 4  
Month to date cooling degree days 16  
Year to date cooling degree days 1981  
Growing Degree Days 18 (Base 50)    
Moisture  
Dew Point 53 °F    
Average Humidity 63    
Maximum Humidity 90    
Minimum Humidity 48    
Precipitation  
Precipitation 0.00 in 0.13 in 3.79 in (1941)
Month to date precipitation 0.50  
Year to date precipitation 32.24  
Sea Level Pressure  
Sea Level Pressure 30.12 in    
Wind  
Wind Speed 4 mph (ESE)    
Max Wind Speed 13 mph    
Max Gust Speed 18 mph    
Visibility 10 miles    
Events      
T = Trace of Precipitation, MM = Missing Value Source: NWS Daily Summary

Daily Weather History Graph

Daily Weather History Graph

Search for Another Location

Airport:

Trip Planner

Search our weather history database for the weather conditions in past years. The results will help you decide how hot, cold, wet, or windy it might be!

Date:

Astronomy

Oct. 04, 2012 Rise Set
Actual Time 7:21 AM CDT 7:02 PM CDT
Civil Twilight 6:56 AM CDT 7:28 PM CDT
Nautical Twilight 6:26 AM CDT 7:57 PM CDT
Astronomical Twilight 5:56 AM CDT 8:27 PM CDT
Moon 9:47 PM CDT (10/4) 11:31 AM CDT (10/4)
Length of Visible Light 12h 31m
Length of Day
11h 40m
Waning Gibbous, 82% of the Moon is Illuminated
Oct 4
Waning Gibbous
Oct 8
Last Quarter
Oct 15
New
Oct 21
First Quarter
Oct 29
Full

Hourly Weather History & Observations

Time (CDT) Temp. Heat Index Dew Point Humidity Pressure Visibility Wind Dir Wind Speed Gust Speed Precip Events Conditions
12:53 AM 66.0 °F - 52.0 °F 60% 30.03 in 10.0 mi South 4.6 mph - N/A   Clear
1:53 AM 64.0 °F - 52.0 °F 65% 30.04 in 10.0 mi SSE 4.6 mph - N/A   Clear
2:53 AM 63.0 °F - 52.0 °F 67% 30.04 in 10.0 mi Calm Calm - N/A   Clear
3:53 AM 57.0 °F - 52.0 °F 83% 30.05 in 10.0 mi Calm Calm - N/A   Clear
4:53 AM 55.9 °F - 52.0 °F 87% 30.06 in 10.0 mi Calm Calm - N/A   Clear
5:53 AM 55.0 °F - 52.0 °F 89% 30.09 in 10.0 mi Calm Calm - N/A   Clear
6:53 AM 55.9 °F - 53.1 °F 90% 30.14 in 10.0 mi Calm Calm - N/A   Clear
7:53 AM 61.0 °F - 54.0 °F 78% 30.14 in 10.0 mi SSE 4.6 mph - N/A   Clear
8:53 AM 64.9 °F - 55.0 °F 70% 30.16 in 10.0 mi SSE 4.6 mph - N/A   Clear
9:53 AM 70.0 °F - 55.9 °F 61% 30.16 in 10.0 mi South 5.8 mph - N/A   Clear
10:53 AM 75.0 °F - 57.9 °F 55% 30.16 in 10.0 mi South 9.2 mph - N/A   Clear
11:53 AM 79.0 °F - 59.0 °F 50% 30.15 in 10.0 mi SSW 6.9 mph - N/A   Clear
12:53 PM 80.1 °F 81.1 °F 61.0 °F 52% 30.14 in 10.0 mi Variable 4.6 mph - N/A   Mostly Cloudy
1:53 PM 78.1 °F - 61.0 °F 56% 30.13 in 10.0 mi WSW 3.5 mph - N/A   Overcast
2:53 PM 75.0 °F - 55.9 °F 51% 30.12 in 10.0 mi North 6.9 mph 17.3 mph N/A   Overcast
3:53 PM 75.0 °F - 55.9 °F 51% 30.12 in 10.0 mi North 8.1 mph - N/A   Mostly Cloudy
5:53 PM 72.0 °F - 51.1 °F 48% 30.13 in 10.0 mi North 8.1 mph - N/A   Overcast
6:53 PM 70.0 °F - 50.0 °F 49% 30.14 in 10.0 mi NNE 9.2 mph - N/A   Overcast
8:53 PM 64.9 °F - 48.0 °F 54% 30.18 in 10.0 mi North 8.1 mph - N/A   Overcast
9:53 PM 63.0 °F - 46.9 °F 56% 30.19 in 10.0 mi NNE 12.7 mph 18.4 mph N/A   Overcast
10:53 PM 62.1 °F - 46.0 °F 56% 30.17 in 10.0 mi NNE 12.7 mph 18.4 mph N/A   Overcast
11:53 PM 60.1 °F - 45.0 °F 57% 30.17 in 10.0 mi Variable 5.8 mph - N/A   Overcast